GFSMA_250_spd_120.txt.gz
Wind_Speed
78 79 78 78 76 75 72 70 68 67 66 64 60 58 56 51 51 49 50 51 49 47 46 40 40 39 40 38 36 35 36 36 36 35 34 36 36 36 36 39 42 42 45
86 84 83 84 82 79 77 76 74 73 72 71 69 65 63 59 55 54 53 55 54 51 49 47 45 45 44 40 39 38 35 37 36 35 35 37 36 39 34 32 34 37 39
93 90 90 89 88 86 82 81 80 78 80 78 75 73 72 67 62 60 57 57 57 55 53 53 51 48 47 46 44 42 40 38 37 38 37 36 36 35 34 32 35 35 34
101 99 97 93 93 92 89 86 86 84 85 83 79 77 76 75 71 63 58 60 61 60 60 55 57 55 50 49 48 48 43 42 42 41 39 39 38 36 36 38 38 37 38
109 106 103 101 99 97 95 93 93 93 91 87 85 83 83 82 80 72 69 73 75 67 60 65 64 59 54 53 53 51 51 47 45 46 46 45 46 43 43 42 43 42 40
113 111 110 107 104 102 101 100 98 99 100 95 88 87 85 86 86 79 67 54 64 72 67 70 68 61 59 57 58 56 55 53 53 52 52 51 49 50 48 47 48 48 47
108 107 105 105 102 99 98 99 100 102 103 103 96 91 87 87 89 90 81 74 72 83 77 66 65 68 70 64 63 63 62 59 60 60 59 56 55 52 53 53 53 54 54
101 101 99 98 96 92 91 90 91 94 102 105 101 96 91 91 91 95 95 93 96 93 90 88 88 83 81 77 73 69 70 68 68 68 66 64 60 59 59 58 59 60 59
88 90 90 88 90 91 92 93 92 92 94 99 97 97 98 100 100 97 99 101 100 99 97 96 94 91 88 85 85 78 76 76 75 75 73 70 69 67 66 66 65 64 64
77 79 83 81 81 83 85 89 92 92 93 95 94 95 97 100 104 105 105 102 100 104 105 102 104 97 97 95 91 88 84 80 79 79 77 76 74 72 72 70 71 70 70
66 68 72 74 74 76 80 84 87 92 96 100 100 97 97 98 103 101 103 103 103 101 99 101 109 105 106 101 95 93 88 87 87 83 81 78 77 76 77 76 73 71 71
55 57 59 62 63 66 68 69 85 90 102 104 105 103 103 96 101 102 101 106 105 105 103 103 111 109 107 105 97 95 92 93 91 88 84 82 81 79 79 78 80 75 73
43 47 51 53 53 54 60 68 79 90 98 101 102 100 105 100 98 97 96 102 103 105 109 111 111 112 110 103 97 94 94 95 96 90 89 88 87 84 79 78 78 77 76
39 41 43 43 47 52 58 67 79 86 94 98 101 106 104 100 101 101 99 100 98 102 106 112 114 115 112 108 104 100 98 94 92 95 91 88 86 83 81 80 77 78 78
31 34 37 38 40 48 58 64 73 79 88 97 104 106 105 100 99 97 98 99 99 103 102 103 108 112 116 112 112 111 107 101 96 92 91 89 89 88 85 83 82 82 80
25 25 25 27 33 41 53 62 70 78 88 92 97 96 97 98 96 98 93 97 100 99 101 103 105 107 109 113 112 115 111 110 108 102 99 97 94 93 91 91 90 87 83
22 21 21 22 27 32 41 57 67 76 82 89 92 92 90 91 87 83 90 88 83 84 88 98 105 106 106 107 107 110 111 114 106 107 106 105 103 100 98 97 96 93 90
28 24 22 26 28 33 38 42 49 53 63 72 76 80 76 74 79 75 79 86 88 87 93 97 104 105 108 107 108 107 106 109 106 103 103 103 103 102 95 94 90 88 88
29 29 27 28 29 34 39 46 51 57 65 66 65 67 70 72 74 78 83 87 89 91 95 95 95 99 103 103 104 106 108 108 107 104 101 98 95 94 89 89 82 85 76
35 33 33 33 35 38 42 46 51 57 63 71 76 78 81 82 82 85 85 83 87 88 85 86 88 94 96 96 96 97 99 100 102 102 98 97 91 87 84 82 79 76 73
39 40 41 42 42 43 47 50 52 56 59 62 66 68 71 72 73 77 79 79 79 80 83 86 87 85 86 89 89 89 89 89 90 92 90 87 85 83 82 80 75 75 75
46 45 44 45 48 50 53 55 56 57 60 62 66 69 70 70 72 73 73 73 72 73 73 73 76 82 85 85 82 83 83 85 87 87 87 86 82 82 77 80 76 79 73
54 54 53 53 54 55 56 57 60 61 62 64 66 67 68 68 69 71 72 72 70 68 67 68 70 71 73 77 80 80 80 80 82 85 82 81 80 79 77 77 75 72 69
56 56 57 60 62 63 63 63 64 65 66 67 68 69 70 71 71 72 71 70 71 73 71 69 69 70 70 72 73 75 77 77 78 79 78 76 78 75 75 73 72 71 67
55 57 58 61 63 65 67 66 67 69 70 72 73 73 73 75 75 75 75 75 75 72 68 68 71 73 72 71 71 71 72 71 72 73 75 69 71 69 69 68 69 67 66
57 57 57 61 64 64 64 66 69 71 73 74 76 77 77 79 79 78 77 78 80 80 77 74 73 71 70 73 73 73 73 71 71 70 73 70 68 68 68 70 70 67 66

GFSMA_250_spd_123.txt.gz
Wind_Speed
88 89 88 86 84 82 79 77 75 74 73 71 68 66 66 63 61 58 57 58 54 49 48 48 47 47 45 43 41 38 37 34 34 33 33 33 34 31 32 31 32 32 29
97 95 94 93 90 88 85 82 80 79 79 77 77 75 73 70 70 67 64 63 60 54 53 52 51 52 50 47 45 45 43 40 39 35 34 32 32 32 32 30 28 30 31
100 100 98 96 96 95 93 90 87 84 83 83 83 82 77 77 75 74 74 69 65 61 58 57 56 56 53 53 50 50 47 45 45 39 38 39 36 35 33 31 32 33 34
108 107 105 105 105 103 101 99 96 93 90 87 87 87 85 82 79 78 79 80 71 69 65 59 59 61 59 59 56 54 52 51 49 47 45 43 40 40 41 38 38 37 37
113 112 111 110 110 107 105 103 103 98 97 94 92 89 88 88 86 83 80 82 78 73 70 69 66 62 64 65 59 59 57 57 53 49 48 47 46 46 45 45 45 45 43
111 110 107 107 109 109 107 103 98 96 95 98 97 95 93 93 91 91 87 82 80 79 73 74 76 75 72 72 76 64 62 64 58 54 51 52 52 50 50 50 51 49 50
107 106 107 104 103 105 106 105 102 97 94 93 93 94 95 96 97 96 94 89 84 82 80 86 74 76 81 73 74 71 65 67 65 58 56 58 58 58 58 56 56 56 54
88 90 91 93 96 97 102 103 104 104 103 98 93 90 92 95 94 95 100 94 88 86 83 88 85 88 83 74 78 76 71 69 68 67 66 64 64 65 64 64 63 62 60
76 76 78 79 82 83 87 93 95 99 100 102 101 98 93 92 95 96 96 95 92 91 90 89 88 89 91 86 84 85 91 87 84 83 80 75 73 71 71 71 69 68 65
64 65 66 68 71 70 72 77 81 84 91 96 101 104 102 100 96 94 96 95 92 91 92 92 93 95 95 96 101 101 100 99 95 90 86 86 82 80 76 75 72 73 72
56 53 53 59 59 59 59 63 70 75 81 85 90 98 104 105 105 101 101 98 95 94 96 98 99 102 103 101 102 105 105 106 101 98 98 93 89 85 82 78 76 76 74
55 52 49 47 51 52 52 57 62 69 74 77 83 89 97 103 107 102 98 100 99 99 98 98 103 106 110 108 104 104 103 105 106 108 103 93 91 89 88 85 83 81 77
46 46 47 45 44 45 47 49 53 60 67 72 78 85 93 96 103 101 102 101 101 106 104 102 102 104 106 108 107 108 108 105 106 109 103 91 91 88 89 88 88 85 86
37 40 40 41 41 40 39 42 47 53 58 64 73 85 84 89 94 96 102 104 107 105 104 103 103 101 102 105 106 104 105 104 105 110 114 103 97 94 89 85 85 82 83
36 35 35 36 40 40 39 37 42 46 53 61 64 72 76 84 88 90 101 101 104 105 107 105 106 108 108 105 103 103 104 107 108 113 113 113 111 104 95 92 89 87 83
39 38 34 34 32 32 33 35 37 44 48 55 59 61 70 76 81 91 96 95 95 96 101 103 102 102 105 106 106 105 105 106 110 110 111 111 111 111 106 101 98 96 93
38 37 38 37 33 31 32 29 29 36 40 48 56 64 71 81 85 91 94 96 94 93 93 95 94 96 103 103 100 102 106 108 106 108 111 111 108 106 105 105 104 99 96
35 35 37 37 38 39 33 33 33 34 37 40 51 63 71 81 87 90 92 93 84 84 80 78 76 80 85 86 92 94 94 98 104 110 110 109 110 105 101 105 103 100 97
41 38 34 34 37 39 41 41 38 41 41 44 50 52 56 65 80 84 83 77 73 72 73 75 80 81 80 81 85 90 95 97 99 100 103 108 109 106 103 101 99 93 86
47 44 42 41 40 38 40 42 45 47 49 51 52 55 58 63 67 71 74 76 80 84 79 75 77 81 82 84 87 92 97 97 97 97 98 100 101 102 102 98 98 101 95
50 49 48 49 48 47 46 45 46 50 52 55 57 60 63 66 68 72 76 79 79 86 86 85 85 86 88 90 90 89 89 90 89 90 94 95 94 94 95 93 90 92 92
53 51 51 51 50 51 55 57 55 53 54 58 61 64 67 69 72 73 74 76 76 78 80 79 80 82 82 81 82 83 82 86 85 86 82 83 84 87 87 85 83 81 82
55 55 53 53 53 52 54 58 61 62 64 63 62 65 69 71 72 74 76 78 79 79 78 78 80 81 80 78 81 81 79 79 79 81 78 82 82 81 81 82 81 77 75
58 59 57 54 54 53 54 57 60 64 64 65 69 70 68 70 73 75 76 77 79 80 81 80 79 79 78 80 77 75 75 73 74 76 74 73 79 75 76 78 77 76 74
60 61 61 61 57 56 56 55 58 60 64 66 64 65 68 70 71 75 78 79 80 81 79 79 81 82 82 79 76 72 72 71 71 71 71 68 71 69 71 72 73 72 73
61 62 63 64 63 60 59 59 59 58 58 60 62 64 64 68 72 73 76 79 82 85 83 81 81 83 84 83 80 76 73 71 70 69 72 65 67 67 67 68 69 67 68

GFSMA_250_spd_126.txt.gz
Wind_Speed
91 91 90 90 91 91 90 89 87 86 83 81 79 76 71 70 70 67 65 65 64 61 57 55 53 51 49 47 46 45 43 41 38 36 36 37 34 33 31 30 28 27 26
95 96 96 95 96 96 95 93 93 92 90 88 85 82 80 76 73 73 73 72 71 67 65 62 59 58 54 52 50 48 48 45 43 40 41 41 41 35 31 30 30 29 25
102 102 102 102 102 102 100 99 97 96 95 92 89 87 85 83 80 76 74 77 77 73 72 69 65 63 60 55 53 53 51 50 48 46 44 45 42 43 36 34 34 34 32
107 107 104 104 105 106 104 102 101 102 101 98 95 93 91 90 88 84 81 80 81 80 77 74 71 69 66 61 59 57 54 55 54 52 50 49 46 48 45 38 38 36 37
108 107 104 102 102 103 104 105 104 101 99 97 98 98 96 95 95 91 89 87 85 83 83 82 74 70 71 69 67 66 64 60 57 57 55 54 53 51 49 45 41 41 41
101 95 94 93 96 99 100 101 102 103 101 101 99 96 96 96 95 93 91 91 90 87 86 86 81 75 71 73 73 73 73 68 65 60 58 62 61 56 53 50 45 43 45
86 80 78 80 84 85 89 91 94 97 100 100 103 99 98 95 92 92 93 92 90 91 89 87 87 83 78 76 77 80 79 75 73 70 69 66 68 63 61 59 51 49 49
72 67 67 68 69 74 79 80 82 86 88 95 98 101 99 96 93 92 94 94 92 90 91 91 89 89 82 81 80 79 81 82 81 70 76 71 71 70 63 62 61 58 55
70 74 74 71 68 64 63 66 68 75 79 83 88 94 98 98 101 98 95 95 94 92 90 90 89 89 86 84 85 87 86 85 85 82 87 83 77 77 67 63 64 65 68
73 75 73 72 69 62 54 54 57 60 65 73 78 85 91 94 100 102 102 101 97 95 92 89 88 90 86 84 85 85 87 83 85 77 80 73 76 80 77 78 81 81 78
66 66 65 67 63 59 50 46 50 52 54 61 69 77 82 88 94 99 103 103 102 100 100 95 92 91 90 88 88 89 89 89 83 85 87 91 89 87 84 82 86 86 80
54 59 57 57 56 54 48 41 39 45 49 51 58 67 72 80 87 91 99 103 107 106 104 105 101 97 93 89 88 93 89 92 94 94 93 98 97 95 96 95 97 96 90
46 47 49 49 48 45 45 44 38 38 43 46 51 56 62 68 75 85 93 96 103 105 108 111 105 101 98 96 93 92 93 95 98 96 97 102 100 100 101 98 102 100 88
46 46 46 46 45 43 37 40 39 36 39 42 46 50 56 62 68 75 84 90 94 99 100 104 107 106 103 105 103 102 102 100 105 101 103 103 106 102 107 101 105 107 100
44 46 46 44 44 43 39 31 32 36 37 41 44 48 53 58 64 70 75 82 91 97 96 107 101 103 108 110 108 106 107 108 107 105 112 115 118 110 109 105 109 108 103
38 40 42 45 45 44 42 36 31 31 33 36 40 43 45 51 58 61 67 76 90 94 96 93 92 95 102 106 106 112 112 111 108 109 108 108 110 108 106 108 106 105 101
45 45 44 41 39 42 45 43 37 34 32 32 35 38 40 46 52 58 62 70 79 84 90 94 97 98 104 104 101 102 103 106 109 109 111 110 108 107 105 103 110 106 102
50 49 48 48 46 42 39 40 44 44 38 37 36 36 39 42 44 54 62 66 75 79 84 88 91 94 99 95 96 97 101 99 99 101 100 104 107 103 103 104 108 109 103
53 51 50 49 49 49 47 47 45 42 45 46 44 42 42 45 47 50 55 58 64 70 74 80 82 84 85 84 82 77 78 75 76 76 81 85 90 94 97 99 100 103 105
56 55 53 52 50 48 48 48 46 48 50 48 48 51 51 49 51 52 54 58 63 66 68 70 74 78 81 79 79 75 74 75 79 76 76 81 85 85 89 94 98 95 94
55 57 56 56 54 51 50 48 48 49 48 52 55 55 54 57 58 60 59 60 62 66 68 71 72 75 76 77 78 80 80 81 82 84 83 84 85 88 94 94 92 94 92
58 57 58 58 58 58 54 53 51 49 50 51 53 58 59 60 60 63 65 67 69 70 71 72 73 76 78 79 79 79 80 82 87 86 88 92 90 91 92 92 89 91 92
63 62 60 59 59 59 58 57 55 51 49 51 50 54 59 63 64 66 68 70 73 75 75 75 76 78 79 79 80 81 83 81 82 85 80 85 80 80 81 84 83 82 83
64 65 63 63 62 61 59 59 58 55 52 51 51 52 55 60 64 68 70 72 74 76 77 77 80 82 80 82 82 83 83 80 81 85 81 79 78 76 77 76 74 77 78
65 66 66 66 64 63 63 60 59 58 55 53 52 53 56 58 59 64 70 70 72 74 77 79 81 84 87 86 84 83 86 85 83 84 83 75 79 76 77 74 71 71 72
65 65 67 67 66 65 65 63 62 61 58 56 53 53 55 58 60 60 63 68 72 72 75 78 81 84 88 91 90 88 87 87 84 86 89 80 81 75 72 73 68 66 67

GFSMA_250_spd_129.txt.gz
Wind_Speed
91 91 92 89 89 89 88 89 88 89 90 90 89 86 84 82 82 79 77 73 71 68 66 64 61 62 56 55 52 50 48 46 44 43 40 37 37 34 35 35 35 33 31
91 93 93 94 95 95 96 96 95 94 94 95 96 94 92 89 86 83 82 80 76 74 71 69 69 65 63 63 61 57 53 51 49 48 46 42 40 38 38 38 38 34 31
96 97 98 99 99 100 98 98 97 96 94 94 94 96 98 98 96 91 87 84 80 77 77 74 71 71 69 67 64 64 62 59 54 50 49 46 44 43 43 41 41 41 37
94 94 95 97 98 97 97 97 96 95 97 98 97 97 97 97 98 96 95 90 85 82 81 79 75 73 71 71 70 69 66 65 60 56 53 51 49 48 45 43 41 40 41
90 89 90 91 90 90 89 87 85 86 88 93 97 100 99 98 95 97 96 96 95 89 86 85 83 79 77 76 76 74 71 68 67 62 59 58 55 51 52 49 48 46 45
83 82 82 83 82 81 77 73 72 71 72 83 91 93 98 101 98 96 94 95 96 95 93 92 89 86 86 82 83 79 77 74 71 68 66 65 64 61 55 54 53 51 50
75 75 74 71 66 65 67 65 61 59 66 70 83 87 89 96 100 99 95 92 94 95 94 92 90 93 89 98 85 82 81 79 76 72 72 68 66 65 63 59 56 58 58
59 58 59 61 64 65 67 64 61 61 64 68 72 80 83 86 93 97 99 97 94 95 93 100 96 98 98 96 89 86 82 80 79 79 75 75 73 73 70 67 64 65 63
57 59 60 61 63 65 68 69 68 66 66 68 62 68 77 77 83 91 94 99 100 98 99 100 98 100 99 97 93 87 85 80 82 82 83 81 81 78 72 70 68 65 67
54 56 57 57 57 59 60 62 66 65 63 60 60 57 64 68 72 81 87 94 100 103 108 102 101 102 100 96 90 88 86 83 83 81 85 83 86 82 79 79 77 72 75
50 53 54 54 54 54 54 52 56 61 59 53 50 48 52 57 63 69 76 84 95 101 104 107 107 104 100 97 92 90 89 86 84 84 86 81 86 84 82 81 81 75 76
43 46 48 50 52 52 52 50 47 50 56 54 44 42 43 47 52 59 66 76 87 96 103 105 104 106 105 102 98 93 90 90 87 85 83 80 84 87 81 81 70 73 70
38 41 42 43 45 49 51 50 47 43 48 48 43 37 38 40 45 50 56 67 75 87 92 96 103 104 109 107 102 101 98 94 91 88 86 84 88 90 87 86 80 83 83
37 38 38 39 41 42 46 49 47 43 39 41 42 39 35 37 40 46 52 59 67 77 85 91 95 102 117 117 107 105 107 106 101 94 89 93 87 94 93 93 90 89 87
42 42 41 41 42 42 42 41 44 46 40 36 35 34 33 34 39 40 47 54 62 70 77 86 97 103 112 99 110 116 113 103 97 101 98 96 97 93 97 98 98 96 96
46 46 46 45 44 44 43 43 41 41 43 41 36 33 29 31 35 40 45 50 55 63 71 78 86 100 104 104 106 110 114 112 105 106 104 104 102 98 103 107 101 103 105
48 47 48 48 48 46 46 45 43 42 41 41 41 39 36 32 32 33 40 46 50 57 65 71 78 85 94 102 108 109 110 108 112 112 111 111 109 106 109 105 108 108 110
53 53 53 52 51 49 48 48 47 44 42 42 43 42 41 40 38 36 36 37 44 45 55 64 71 81 89 95 102 103 106 104 107 104 107 109 111 112 115 113 111 113 110
57 57 56 56 55 53 52 50 49 49 46 42 41 42 45 44 43 43 42 42 43 44 48 52 61 73 80 87 91 96 99 100 101 97 100 99 102 111 119 117 118 120 116
60 60 59 59 60 58 54 50 50 51 48 46 46 43 44 47 48 47 47 48 48 49 50 52 54 58 63 73 83 88 91 94 95 96 96 99 99 99 100 107 108 103 106
60 61 61 61 61 60 60 55 51 51 50 49 48 48 47 47 48 52 53 52 52 55 56 57 58 60 63 65 68 74 79 83 87 88 89 89 90 85 85 87 86 85 88
69 67 64 65 62 61 61 59 55 52 51 52 49 49 50 50 50 51 55 59 58 57 59 61 64 65 67 69 71 73 74 77 80 80 81 83 82 82 79 80 81 84 88
71 72 71 68 67 64 62 62 59 58 54 53 53 52 50 49 50 53 56 58 61 65 66 65 67 69 71 73 74 76 77 77 79 78 77 85 81 84 84 84 86 85 86
74 73 71 71 70 68 64 63 62 60 58 56 54 55 54 52 52 53 56 60 62 63 67 71 71 72 73 76 77 79 81 80 83 84 81 82 83 82 84 84 83 84 84
80 78 73 69 71 70 66 65 65 62 60 59 56 57 58 57 56 55 56 60 63 64 66 67 72 74 73 75 77 79 82 84 86 88 87 85 88 85 85 84 81 81 79
84 80 78 70 69 71 67 66 65 65 62 60 58 57 59 59 59 58 59 60 63 64 65 67 67 70 73 75 76 77 80 83 86 89 93 89 92 89 87 86 83 80 77

GFSMA_250_spd_132.txt.gz
Wind_Speed
83 84 86 87 88 90 92 93 93 92 91 90 89 89 89 87 86 86 85 85 84 79 77 75 75 71 68 65 61 61 58 57 53 50 49 46 42 40 39 38 35 34 35
86 88 91 94 94 93 92 91 91 92 93 93 92 92 92 94 94 94 93 91 91 87 83 80 79 78 75 72 67 65 62 63 61 58 54 52 50 46 46 44 41 39 38
91 92 91 90 89 90 89 90 90 92 92 93 92 93 92 93 95 96 97 96 93 93 90 88 85 83 80 77 74 69 64 63 62 64 61 58 54 51 51 50 45 43 43
87 87 88 90 90 89 88 89 89 89 89 89 90 92 94 95 98 99 98 98 98 96 94 93 91 89 86 82 79 73 69 66 65 64 62 62 62 59 56 52 50 47 46
87 86 86 85 84 84 83 83 83 82 81 83 83 84 87 88 90 96 99 99 98 98 98 95 95 94 92 88 82 78 75 71 69 70 68 64 64 62 60 57 54 51 49
81 81 79 75 72 71 71 71 70 70 70 71 72 73 73 78 84 88 91 95 96 96 99 98 97 97 95 91 87 82 81 80 74 73 72 74 68 65 62 61 60 58 54
65 64 62 61 60 59 58 59 60 60 62 61 60 63 66 72 79 87 85 82 87 93 97 100 99 98 96 90 91 89 87 87 84 83 81 81 79 72 67 65 64 64 63
54 54 54 54 54 54 54 55 55 56 58 58 56 54 55 61 70 75 83 86 90 90 94 98 99 97 97 94 95 94 92 93 93 93 84 83 82 78 74 70 69 67 66
45 46 47 48 49 51 51 52 53 54 57 59 59 57 56 59 57 62 68 77 86 82 86 91 96 99 100 97 98 93 99 96 97 100 94 94 89 84 81 79 74 74 68
38 40 43 45 47 49 50 51 52 53 53 55 58 59 59 58 53 60 61 61 67 66 72 83 93 99 100 99 98 101 97 99 100 101 99 94 85 80 80 80 79 78 76
37 39 40 42 43 45 46 48 50 51 51 52 52 57 59 58 51 50 53 54 58 59 67 74 88 101 105 103 98 103 107 103 99 94 96 96 90 84 84 81 83 82 82
38 40 42 43 44 45 46 46 45 46 50 50 50 51 51 59 51 47 47 45 47 53 59 70 85 98 107 113 109 114 105 106 107 102 104 100 95 86 84 80 80 79 80
39 42 45 46 48 48 49 48 46 45 45 48 48 47 46 48 50 42 43 41 43 47 52 62 77 87 95 113 115 112 111 108 106 101 101 99 99 94 87 83 80 77 77
42 42 44 45 48 50 50 49 48 47 46 45 46 46 43 39 42 44 39 41 41 45 53 57 68 78 89 101 110 116 119 115 110 109 103 100 98 98 92 89 86 81 86
46 48 50 50 50 49 50 50 49 48 47 47 45 45 43 39 36 36 41 39 41 43 47 58 63 70 79 92 104 113 117 115 116 112 110 110 108 106 100 97 90 86 87
48 50 51 52 53 53 53 52 51 49 48 48 47 45 44 41 37 35 35 38 39 42 46 51 57 65 71 81 93 103 112 115 119 117 112 121 114 112 107 101 97 94 93
50 52 54 54 54 56 59 59 56 54 50 49 49 46 44 43 42 39 36 36 38 40 42 50 52 58 65 73 82 92 101 110 115 116 117 120 121 115 113 105 101 104 102
53 55 57 58 61 61 61 62 61 61 56 51 50 49 46 44 43 42 42 41 40 40 42 43 49 57 60 64 72 81 90 99 109 112 115 120 121 120 116 114 109 112 105
58 60 62 64 66 68 69 68 66 63 60 58 55 50 48 46 45 44 43 45 46 44 44 45 47 50 56 63 66 72 78 86 96 105 114 116 118 115 117 114 112 113 112
63 64 65 67 70 72 74 73 71 69 66 59 58 56 52 49 47 45 45 45 47 50 50 50 50 52 54 58 62 67 73 81 84 93 101 109 115 113 117 118 117 114 114
67 69 72 70 70 79 81 79 73 73 69 66 60 58 57 53 50 50 47 47 47 49 54 56 56 56 56 58 62 65 68 74 80 85 90 95 104 109 106 111 109 111 112
74 76 76 77 75 83 86 80 76 71 71 68 63 60 58 56 54 53 52 51 50 51 54 57 62 61 61 62 63 66 69 72 72 76 80 85 86 87 90 93 97 97 97
79 79 81 84 87 89 91 84 78 76 71 69 66 62 59 59 58 55 55 54 53 53 55 59 62 65 68 67 67 68 71 74 77 80 78 80 78 82 86 87 86 86 90
83 86 88 89 95 93 91 80 79 76 74 68 67 63 62 60 59 59 57 56 56 56 58 58 62 66 68 72 73 73 72 75 80 81 83 84 82 83 84 83 83 85 85
91 92 94 96 98 100 88 82 79 73 71 69 67 66 64 63 60 61 60 60 59 58 61 61 63 65 67 71 74 75 76 78 80 81 85 85 88 88 87 86 85 85 85
94 95 96 99 99 90 80 78 76 72 69 67 65 65 65 65 62 61 62 61 61 61 62 62 64 65 67 69 72 75 78 79 80 83 85 83 87 91 90 92 89 89 90